www.pogodaiklimat.ru
ПОГОДА в Коди
Время
и дата
20:56 17.07
21:56 17.07
22:56 17.07
23:56 17.07
00:56 18.07
01:56 18.07
02:56 18.07
03:56 18.07
04:56 18.07
05:56 18.07
06:56 18.07
07:56 18.07
08:56 18.07
09:56 18.07
10:56 18.07
11:56 18.07
12:26 18.07
12:53 18.07
12:56 18.07
13:56 18.07
14:34 18.07
14:56 18.07
15:43 18.07
15:56 18.07
16:56 18.07
17:56 18.07
18:56 18.07
19:56 18.07
20:56 18.07
21:56 18.07
22:56 18.07
23:56 18.07
00:56 19.07
01:56 19.07
02:56 19.07
03:56 19.07
04:56 19.07
05:56 19.07
06:56 19.07
07:56 19.07
08:56 19.07
09:56 19.07
10:56 19.07
11:56 19.07
12:56 19.07
13:56 19.07
14:56 19.07
15:56 19.07
Ветер
(напр.,м/с)
Видим. Явления Облачность Т
(С)
Тd
(С)
f
(%)
Тe
(С)
Тes
(С)
Комфортность P
(гПа)
Po
(гПа)
Тmin
(С)
Tmax
(С)
R
(мм)
R24
(мм)
S
(см)
З 4 16 км ясно +25.0 +6.7 31 +25 +25 комфорт 1017.4 848.8
СЗ 2 16 км ясно +20.0 +7.8 45 +22 +22 комфорт 1018.4 849.3
СЗ 3 16 км ясно +20.6 +6.1 39 +22 +22 комфорт 1019.2 850.2 +19.4 +28.3
СЗ 3 16 км ясно +20.6 +6.7 40 +22 +22 комфорт 1018.8 849.9
СЗ 2 16 км ясно +20.6 +7.2 42 +22 +22 комфорт 1018.0 849.3
ЮЗ 3 16 км ясно +18.9 +7.8 48 +20 +20 1017.9 848.8
ЮЗ 4 16 км ясно +19.4 +7.2 45 +20 +20 1017.3 848.5
ЮЗ 2 16 км ясно +18.9 +7.2 47 +20 +20 1018.1 848.5
ЮЗ 3 16 км ясно +17.2 +6.7 50 +17 +17 1018.0 848.8 +15.0 +21.1
ЮЗ 7 16 км ясно +18.9 +6.7 45 +19 +19 1017.9 848.8
ЮЗ 5 16 км ясно +21.1 +7.2 41 +22 +22 комфорт 1018.2 849.0
Ю 6 14 км ясно +25.0 +6.7 31 +25 +26 комфорт 1017.2 848.8
ЮЗ 4 16 км ясно +26.7 +7.2 29 +26 +31 жарко 1016.7 848.5
нст 2 14 км ясно +28.9 +6.1 24 +28 +38 жарко 1016.9 848.2
ЮВ 3 13 км ясно +30.0 +6.7 23 +29 +41 жарко 1016.0 847.9 +17.2 +30.6
нст 3 16 км ясно +32.2 +5.6 19 +30 +45 жарко 1015.2 847.4
С 7 16 км гроза со слабым дождем 8/0 3300 m
[Ac]
+29.0 +11.0 33 +30 +32 жарко 847.6
С 2 16 км 8/0 3300 m
[Ac]
+29.0 +11.0 33 +30 +38 жарко 847.4
С 2 16 км 8/0 3600 m
[Ac]
+28.9 +11.1 33 +29 +38 жарко 1015.3 847.1
С 3 16 км ясно +31.7 +7.8 23 +31 +46 жарко 1014.9 847.1
С 4 13 км гроза с дождем 8/2 1650 m
[Ac Cb]
+29.0 +12.0 35 +30 +34 жарко 847.4
СЗ 4 16 км гроза с дождем 10/8 1140 m
[Ac Cb]
+23.3 +13.9 55 +27 +27 душно 1017.3 847.9
В 5 16 км ясно +26.0 +13.0 45 +28 +35 жарко 847.6
СВ 3 16 км ясно +26.7 +12.8 42 +28 +39 жарко 1016.4 847.4
штиль 0 16 км ясно +28.9 +12.8 37 +30 +42 жарко 1015.8 847.1 +22.8 +32.2 0.8
СЗ 5
{10}
16 км 2/0 3600 m
[Ac]
+27.2 +9.4 33 +28 +30 жарко 1016.4 847.6
СЗ 2 16 км ясно +25.6 +9.4 36 +26 +28 жарко 1016.2 847.4
Ю 2 16 км ясно +23.3 +9.4 41 +25 +25 комфорт 1015.9 847.4
Ю 2 16 км ясно +21.7 +9.4 45 +23 +23 комфорт 1016.2 847.6
З 2 16 км ясно +22.8 +9.4 42 +24 +24 комфорт 1015.4 847.4
Ю 2 16 км ясно +21.1 +10.0 49 +23 +23 комфорт 1015.5 847.4 +20.6 +30.0
штиль 0 16 км ясно +19.4 +10.6 57 +20 +20 1015.7 847.6
Ю 2 16 км ясно +18.9 +10.0 56 +20 +20 1016.3 847.6
штиль 0 16 км ясно +18.3 +8.9 54 +19 +19 1016.0 847.6
штиль 0 16 км ясно +16.7 +8.3 58 +17 +17 1017.7 847.9
штиль 0 16 км ясно +15.6 +7.2 57 +16 +16 1018.2 848.5
штиль 0 16 км ясно +15.6 +6.7 55 +16 +16 1018.2 848.8 +15.0 +21.7 0.8
Ю 3 16 км ясно +15.6 +6.7 55 +15 +15 1018.8 849.0
штиль 0 16 км ясно +20.6 +9.4 49 +22 +23 комфорт 1018.8 849.6
СВ 2 16 км ясно +21.7 +9.4 45 +23 +26 комфорт 1019.4 849.9
СВ 5 16 км ясно +22.8 +11.7 50 +25 +29 комфорт 1019.5 849.9
СВ 6 16 км ясно +26.7 +11.7 39 +28 +32 жарко 1018.5 849.6
СВ 5 16 км ясно +26.7 +11.7 39 +28 +35 жарко 1018.8 849.6 +14.4 +26.7
СВ 5 16 км ясно +28.3 +10.6 33 +29 +38 жарко 1018.5 849.3
С 6 16 км ясно +29.4 +10.0 30 +29 +37 жарко 1017.6 848.8
С 6
{11}
16 км ясно +30.0 +10.0 29 +30 +37 жарко 1017.6 848.8
С 7
{10}
16 км ясно +30.0 +10.0 29 +30 +34 жарко 1017.7 848.8
С 5 16 км 5/0 3600 m
[Ac]
+28.9 +11.1 33 +29 +34 жарко 1018.0 848.8
Местоположение метеостанции Yellowstone Regional Airport: широта 44.5167 долгота -109.0167 высота над уровнем моря 1551 м.
В архиве по умолчанию представлена погода в Коди за последние 1-2 суток. Обновление информации о фактической погоде в базе происходит ежечасно! Архивные данные за месяц целиком и за предыдущие месяцы Вы можете получить, выбрав интересующий диапазон дат из раскрывающегося списка и нажав кнопку "Ввод!".
Внимание! Архив погоды МЕТАР в базе сайта по станциям, не включенным в климатический монитор, хранится не более 60 дней. Нет смысла пытаться выбрать более раннюю дату.
*Определитесь, кто Вы:
Внимание! Время в таблицах - местное (без учета летнего времени). Для получения всемирного времени необходимо вычесть поправку, которая равна -7 ч.
Смотрите также архив погоды в соседних городах и на ближайших метеорологических станциях:
Партнеры нашего сайта:      
Пояснения к столбцам:
  • Ветер - указаны скорость ветра в м/с - средняя за 10 мин, порывы в срок и между сроками (в фигурных скобках) и направление, откуда дует ветер: С - северный,
  • СВ - северо-восточный, В - восточный, ЮВ - юго-восточный, Ю - южный, ЮЗ - юго-западный, З - западный, СЗ - северо-западный.
  • Видимость - горизонтальная дальность видимости в метрах или километрах. При видимости от 1 до 10 км при отсутствии осадков обычно наблюдается дымка, при ухудшении видимости до 1 км и менее - туман. В сухую погоду видимость может ухудшаться дымом, пылью или мглою.
  • Явления - указаны атмосферные явления, наблюдавшиеся в срок или в последний час перед сроком; фигурными скобками обозначены явления, наблюдавшиеся между сроками (за 1-3 часа до срока); квадратными скобками обозначены град или гололедные отложения с указанием их диаметра в мм.
  • Облачность - указаны через наклонную черту общая и нижняя облачность в баллах и высота нижней границы облаков в метрах; квадратными скобками обозначены формы облаков: Ci - перистые, Cs - перисто-слоистые, Cc - перисто-кучевые, Ac - высококучевые, As - высокослоистые, Sc - слоисто-кучевые, Ns - слоисто-дождевые, Cu - кучевые, Cb - кучево-дождевые. Подробнее классификацию облаков см. в Атласе облаков (PDF).
  • T - Температура воздуха - температура, измеренная на высоте 2 м над землей.
  • Td - Температура точки росы - температура, при понижении до которой содержащийся в воздухе водяной пар достигнет насыщения.
  • f - Относительная влажность воздуха - влажноcть воздуха, измеренная на высоте 2 м над землей.
  • Te - Эффективная температура - температура, которую ощущает одетый по сезону человек в тени. Характеристика душности погоды. При расчете учитывается влияние влажности воздуха и скорости ветра на теплоощущения человека.
  • Tes - Эффективная температура на солнце - температура, которую ощущает человек, с поправкой на солнечный нагрев. Характеристика знойности погоды. Зависит от высоты солнца над горизонтом, облачности и скорости ветра. Ночью, в пасмурную погоду, а также при ветре 12 м/с и более поправка равна нулю.
  • P - Атмосферное давление - приведенное к уровню моря атмосферное давление.
  • Po - Атмосферное давление - измеренное на уровне метеостанции атмосферное давление.
  • Tmin - Минимальная температура - минимум температуры воздуха на высоте 2 м над землей.
  • Tmax - Максимальная температура - максимум температуры воздуха на высоте 2 м над землей.
  • R - Количество осадков - Количество выпавших осадков за период времени, мм. При наведении курсора мыши на число - период времени, за который выпало указанное количество осадков.
  • R24 - Количество осадков - Количество выпавших осадков за 24 часа, мм.
  • S - Снежный покров - Высота снежного покрова, см. При наведении курсора мыши на число - состояние снежного покрова и степень покрытия местности в баллах.